Regional Weather Roundup
Issued by NWS Charleston, WV

Home | Current Version | Previous Version | Graphics & Text | Print | Product List | Glossary On
Versions: 1 2 3 4 5 6 7 8 9 10 11 12 13 14 15 16 17 18 19 20 21 22 23 24 25 26 27 28 29 30 31 32 33 34 35 36 37 38 39 40 41 42 43 44 45 46 47 48 49 50
000
ASUS41 KRLX 292110
RWRRLX
West Virginia Regional Weather Roundup
National Weather Service Charleston WV
500 PM EDT WED MAR 29 2017

Note: "fair" indicates few or no clouds below 12,000 feet with no
significant weather and/or obstructions to visibility.

WVZ003-292200-
Northern Panhandle of West Virginia

CITY           SKY/WX    TMP DP  RH WIND       PRES   REMARKS
WHEELING       SUNNY     59  33  37 VRB5      30.15S
$$

WVZ009-292200-
Northwest West Virginia

CITY           SKY/WX    TMP DP  RH WIND       PRES   REMARKS
PARKERSBURG    SUNNY     62  40  44 VRB6      30.17F
$$

WVZ006-292200-
Western West Virginia

CITY           SKY/WX    TMP DP  RH WIND       PRES   REMARKS
HUNTINGTON     CLOUDY    57  45  64 VRB5      30.13F
$$

WVZ015-292200-
West Central West Virginia

CITY           SKY/WX    TMP DP  RH WIND       PRES   REMARKS
CHARLESTON     MOSUNNY   59  44  57 N6        30.14S
$$

WVZ022-031-292200-
North Central West Virginia

CITY           SKY/WX    TMP DP  RH WIND       PRES   REMARKS
CLARKSBURG     SUNNY     61  33  35 CALM      30.14F
MORGANTOWN     SUNNY     61  36  39 VRB6      30.15S
$$

WVZ025-035-042-045-292200-
Southern West Virginia

CITY           SKY/WX    TMP DP  RH WIND       PRES   REMARKS
BECKLEY        SUNNY     62  45  53 N13       30.11R
LOGAN          NOT AVBL
BLUEFIELD      MOSUNNY   68  43  40 NW9       30.08R
LEWISBURG      SUNNY     67  41  38 CALM      30.07S
$$

WVZ047-292200-
Northern Mountains of West Virginia

CITY           SKY/WX    TMP DP  RH WIND       PRES   REMARKS
ELKINS         SUNNY     60  39  45 VRB7      30.13F
$$

WVZ052-292200-
Eastern Panhandle of West Virginia

CITY           SKY/WX    TMP DP  RH WIND       PRES   REMARKS
MARTINSBURG    SUNNY     63  36  36 N3        30.10R
PETERSBURG     SUNNY     66  42  40 SE5       30.10S
$$



USA.gov is the U.S. government's official web portal to all federal, state and local government web resources and services.